User: anonymous   Login
Location: Unspecified
(0.0000°N, 0.0000°E)
Time: 23:37:33
(UTC+02:00)
Language:

YAOGAN 1 - Orbit

View from above orbital plane
View from above orbital plane
View from above satellite
View from above satellite

Ground track
Ground track

The orbit data is extracted from the following two-line orbital elements,

1 29092U 06015A   17086.94970298 +.00000173 +00000-0 +28069-4 0  9994
2 29092 098.0055 098.2262 0001448 089.5469 270.5909 14.82779590590220
Epoch (UTC): 27 March 2017 22:47:34
Eccentricity: 0.0001448
inclination: 98.0055°
perigee height: 619 km
apogee height: 621 km
right ascension of ascending node: 98.2262°
argument of perigee: 89.5469°
revolutions per day: 14.82779590
mean anomaly at epoch: 270.5909°
orbit number at epoch: 59022

The dashed part of the orbit path shows where the satellite is in the earth's shadow,  

DLR